Terug naar catalogus

ARIANE 1 DEB

ActiefHEO
NORAD 40778·DEBRIS·🇫🇷 France

Gelanceerd Dec 24, 1979 vanaf Guiana Space Centre

Loading…

Volgende Passages (komende 24 uur)

TLE

VerouderendSource: Space-Track

Epoch: Aug 28, 2026, 13:11 UTC

1 40778U 79104AF  26240.54951310  .00000150  00000-0  30614-3 0  9992
2 40778  18.0202  13.4139 4828834 265.2671  66.1646  5.58150400258549

Volg ARIANE 1 DEB in realtime met AllMySat

Download on the App Store